New Philadelphia, OH

9:39 AM EST on November 20, 2017 (GMT -0500)
Clever

Weather History for KPHD - August, 2014

Change the Weather History Date:

Tuesday, August 12, 2014

  Actual Average Record
Temperature  
Mean Temperature 72 °F 72 °F  
Max Temperature 79 °F 83 °F 95 °F (1988)
Min Temperature 65 °F 61 °F 43 °F (1968)
Degree Days  
Heating Degree Days 0 0  
Month to date heating degree days 0 0  
Since 1 June heating degree days 29 38  
Since 1 July heating degree days 19 3  
Cooling Degree Days 7 7  
Month to date cooling degree days 50 86  
Year to date cooling degree days 445 506  
Since 1 June cooling degree days 379 463  
Growing Degree Days 22 (Base 50)    
Moisture  
Dew Point 67 °F    
Average Humidity 79    
Maximum Humidity 100    
Minimum Humidity 58    
Precipitation  
Precipitation 0.21 in 0.10 in 1.61 in (1964)
Month to date precipitation 2.41 1.19  
Year to date precipitation 27.34 24.55  
Sea Level Pressure  
Sea Level Pressure 29.79 in    
Wind  
Wind Speed 4 mph (South)    
Max Wind Speed 14 mph    
Max Gust Speed 20 mph    
Visibility 8 miles    
Events Rain , Thunderstorm    
T = Trace of Precipitation, MM = Missing Value Source: NWS Daily Summary

Daily Weather History Graph

Daily Weather History Graph

Search for Another Location

Airport or City:

Trip Planner

Search our weather history database for the weather conditions in past years. The results will help you decide how hot, cold, wet, or windy it might be!

Date:

Astronomy

Aug. 12, 2014 Rise Set
Actual Time 6:33 AM EDT 8:27 PM EDT
Civil Twilight 6:03 AM EDT 8:56 PM EDT
Nautical Twilight 5:27 AM EDT 9:32 PM EDT
Astronomical Twilight 4:49 AM EDT 10:11 PM EDT
Moon 9:32 PM EDT (8/12) 8:49 AM EDT (8/12)
Length of Visible Light 14h 52m
Length of Day
13h 53m
Waning Gibbous, 95% of the Moon is Illuminated
Aug 12
Waning Gibbous
Aug 17
Last Quarter
Aug 25
New
Sep 2
First Quarter
Sep 8
Full

Hourly Weather History & Observations

Time (EDT) Temp. Dew Point Humidity Pressure Visibility Wind Dir Wind Speed Gust Speed Precip Events Conditions
12:08 AM 69.1 °F 68.0 °F 96% 29.81 in 7.0 mi South 8.1 mph - 0.01 in Rain Light Rain
12:15 AM 69.1 °F 68.0 °F 96% 29.81 in 9.0 mi Variable 6.9 mph - 0.01 in Rain Light Rain
12:29 AM 69.1 °F 68.0 °F 96% 29.82 in 10.0 mi Variable 6.9 mph - 0.01 in   Overcast
12:53 AM 69.1 °F 68.0 °F 96% 29.80 in 10.0 mi SSE 6.9 mph - 0.01 in   Overcast
1:21 AM 69.1 °F 68.0 °F 96% 29.81 in 10.0 mi Variable 4.6 mph - 0.01 in   Overcast
1:45 AM 69.1 °F 68.0 °F 96% 29.80 in 4.0 mi South 4.6 mph - 0.05 in Rain Light Rain
1:53 AM 69.1 °F 68.0 °F 96% 29.79 in 7.0 mi SSW 3.5 mph - 0.05 in Rain Light Rain
2:08 AM 69.1 °F 68.0 °F 96% 29.81 in 1.8 mi Variable 3.5 mph - 0.09 in Rain Heavy Rain
2:19 AM 69.1 °F 68.0 °F 96% 29.81 in 3.0 mi Calm Calm - 0.12 in Rain Light Rain
2:31 AM 69.1 °F 68.0 °F 96% 29.81 in 7.0 mi Calm Calm - 0.13 in Rain , Thunderstorm Light Rain
2:53 AM 69.1 °F 68.0 °F 96% 29.79 in 10.0 mi Calm Calm - 0.13 in Rain , Thunderstorm Light Rain
3:09 AM 69.1 °F 68.0 °F 96% 29.80 in 10.0 mi ESE 4.6 mph - 0.00 in Thunderstorm Thunderstorm
3:24 AM 69.1 °F 68.0 °F 96% 29.79 in 10.0 mi ESE 4.6 mph - 0.00 in   Overcast
3:53 AM 69.1 °F 68.0 °F 96% 29.77 in 10.0 mi Calm Calm - 0.00 in   Overcast
4:04 AM 69.1 °F 68.0 °F 96% 29.79 in 10.0 mi Calm Calm - N/A   Overcast
4:22 AM 69.1 °F 68.0 °F 96% 29.79 in 10.0 mi Calm Calm - N/A   Overcast
4:53 AM 66.9 °F 66.9 °F 100% 29.77 in 4.0 mi SE 3.5 mph - N/A   Overcast
5:20 AM 66.0 °F 66.0 °F 100% 29.78 in 1.0 mi ESE 4.6 mph - N/A   Mostly Cloudy
5:29 AM 66.9 °F 66.0 °F 97% 29.78 in 2.0 mi ESE 3.5 mph - N/A   Mostly Cloudy
5:32 AM 66.0 °F 66.0 °F 100% 29.78 in 3.0 mi ESE 3.5 mph - N/A   Mostly Cloudy
5:37 AM 66.9 °F 66.0 °F 97% 29.78 in 2.5 mi Calm Calm - N/A   Scattered Clouds
5:48 AM 66.2 °F 66.2 °F 100% 29.78 in 1.8 mi Calm Calm - N/A   Mostly Cloudy
5:53 AM 66.0 °F 66.0 °F 100% 29.76 in 0.8 mi Calm Calm - N/A   Mostly Cloudy
6:02 AM 66.9 °F 66.9 °F 100% 29.78 in 1.2 mi Calm Calm - N/A   Mostly Cloudy
6:06 AM 66.9 °F 66.9 °F 100% 29.78 in 3.0 mi ESE 4.6 mph - N/A   Mostly Cloudy
6:22 AM 66.9 °F 66.0 °F 97% 29.79 in 3.0 mi Calm Calm - N/A   Mostly Cloudy
6:53 AM 68.0 °F 66.9 °F 96% 29.78 in 6.0 mi Calm Calm - N/A   Overcast
7:07 AM 68.0 °F 68.0 °F 100% 29.80 in 6.0 mi SE 4.6 mph - N/A   Overcast
7:24 AM 68.0 °F 68.0 °F 100% 29.80 in 5.0 mi SE 4.6 mph - N/A   Overcast
7:53 AM 69.1 °F 69.1 °F 100% 29.79 in 7.0 mi Calm Calm - N/A   Overcast
8:12 AM 70.0 °F 69.1 °F 97% 29.80 in 8.0 mi Calm Calm - N/A   Overcast
8:36 AM 70.0 °F 69.1 °F 97% 29.80 in 9.0 mi SSE 4.6 mph - N/A   Mostly Cloudy
8:53 AM 71.1 °F 69.1 °F 93% 29.79 in 10.0 mi South 3.5 mph - N/A   Mostly Cloudy
9:22 AM 72.0 °F 69.1 °F 91% 29.80 in 9.0 mi South 4.6 mph - N/A   Overcast
9:28 AM 72.0 °F 69.1 °F 91% 29.80 in 9.0 mi South 5.8 mph - N/A   Overcast
9:40 AM 72.0 °F 69.1 °F 91% 29.80 in 9.0 mi Variable 4.6 mph - N/A   Overcast
9:53 AM 72.0 °F 68.0 °F 87% 29.79 in 10.0 mi WSW 4.6 mph - N/A   Overcast
10:10 AM 72.0 °F 69.1 °F 91% 29.80 in 9.0 mi SW 4.6 mph - N/A   Overcast
10:38 AM 72.0 °F 68.0 °F 87% 29.80 in 10.0 mi SW 3.5 mph - N/A   Mostly Cloudy
10:53 AM 73.9 °F 69.1 °F 85% 29.78 in 10.0 mi SW 8.1 mph - N/A   Scattered Clouds
11:10 AM 73.9 °F 68.0 °F 82% 29.79 in 10.0 mi Variable 6.9 mph - N/A   Mostly Cloudy
11:40 AM 75.0 °F 69.1 °F 82% 29.78 in 10.0 mi SSW 6.9 mph - N/A   Overcast
11:53 AM 77.0 °F 70.0 °F 79% 29.76 in 10.0 mi SSW 5.8 mph - N/A   Overcast
1:41 PM 72.0 °F 70.0 °F 93% 29.77 in 10.0 mi Calm Calm - 0.01 in Rain Light Rain
1:49 PM 73.4 °F 69.8 °F 88% 29.77 in 10.0 mi Calm Calm - 0.01 in Rain , Thunderstorm Light Rain
1:53 PM 73.0 °F 70.0 °F 90% 29.76 in 8.0 mi SSW 3.5 mph - 0.01 in Rain , Thunderstorm Light Rain
2:07 PM 73.9 °F 71.1 °F 91% 29.78 in 8.0 mi North - - 0.01 in Rain Light Rain
2:53 PM 71.1 °F 66.9 °F 87% 29.75 in 10.0 mi South 6.9 mph - 0.01 in   Mostly Cloudy
3:53 PM 75.9 °F 69.1 °F 79% 29.72 in 10.0 mi SW 6.9 mph - N/A   Clear
4:53 PM 79.0 °F 66.9 °F 66% 29.72 in 10.0 mi WSW 9.2 mph - N/A   Mostly Cloudy
5:53 PM 78.1 °F 63.0 °F 60% 29.74 in 10.0 mi WSW 13.8 mph 19.6 mph N/A   Partly Cloudy
6:53 PM 75.9 °F 62.1 °F 62% 29.75 in 10.0 mi West 9.2 mph - N/A   Partly Cloudy
7:53 PM 72.0 °F 62.1 °F 71% 29.77 in 10.0 mi WNW 4.6 mph - N/A   Scattered Clouds
8:53 PM 70.0 °F 63.0 °F 78% 29.79 in 10.0 mi WNW 3.5 mph - N/A   Mostly Cloudy
9:53 PM 68.0 °F 63.0 °F 84% 29.82 in 10.0 mi West 5.8 mph - 0.00 in   Mostly Cloudy
10:53 PM 66.0 °F 63.0 °F 90% 29.83 in 10.0 mi Calm Calm - N/A   Mostly Cloudy
11:53 PM 66.0 °F 62.1 °F 87% 29.84 in 10.0 mi West 4.6 mph - N/A   Overcast